Wind_Speed
38 36 35 35 37 38 38 40 40 38 40 43 45 48 47 48 50 51 54 56 58 58 59 59 58 57 56 55 53 51 50 49 48 47 45 43 42 41 40 38 37 36 34 33
37 34 34 35 36 37 38 39 38 37 39 42 43 45 45 46 48 49 51 54 57 58 59 60 59 58 57 56 54 52 51 51 49 47 46 45 44 43 41 40 39 37 36 34
36 34 35 35 35 36 37 38 37 38 39 40 42 44 44 45 47 49 51 52 55 58 59 60 61 59 58 57 55 54 52 51 50 48 47 46 45 44 42 40 39 38 37 36
35 34 35 35 34 35 35 35 37 38 39 38 39 43 43 43 46 49 51 52 53 56 58 60 61 60 58 57 56 55 54 53 51 49 47 46 45 43 42 41 40 39 38 37
34 34 34 34 33 35 35 34 36 37 38 39 37 42 42 42 43 46 49 51 53 56 58 60 61 61 59 58 57 57 56 54 52 51 48 47 46 44 43 42 41 40 39 37
33 33 34 33 33 33 33 34 35 36 38 40 37 41 41 40 40 42 46 49 52 55 57 59 61 62 61 60 59 58 57 56 54 52 50 48 46 45 43 42 41 40 39 37
33 32 33 32 31 31 32 33 34 35 37 38 35 39 38 35 38 40 42 47 51 54 55 58 60 62 62 61 60 59 57 57 56 54 52 50 47 46 44 42 41 40 39 37
34 31 31 30 30 30 30 31 33 35 36 36 35 37 36 34 35 39 40 45 49 53 55 57 59 60 62 62 61 60 58 58 57 55 53 50 48 47 46 44 42 41 40 38
35 31 29 29 29 28 28 28 30 32 33 35 35 35 34 34 34 37 39 43 47 52 54 56 59 59 60 61 62 61 59 58 57 56 54 52 50 49 47 45 44 42 41 40
35 33 30 29 29 29 29 27 27 30 31 32 33 32 32 32 34 36 38 40 44 49 53 55 57 58 59 60 61 62 61 60 58 56 55 52 51 50 48 46 45 43 42 41
34 34 30 29 28 28 29 28 28 29 30 31 31 29 29 30 31 34 38 40 42 46 52 54 55 56 58 60 61 61 61 60 58 57 55 54 52 51 49 47 45 43 43 41
33 33 31 28 27 27 28 28 29 31 31 31 32 29 27 28 29 31 36 39 42 45 50 54 55 56 58 60 60 61 61 60 59 57 56 54 53 52 51 49 47 44 43 42
32 32 31 28 28 28 28 28 29 32 33 33 33 29 26 27 28 29 34 38 40 43 47 51 54 55 57 59 60 60 60 60 59 58 57 55 54 53 52 50 49 46 44 42
31 31 30 29 28 29 29 28 29 32 34 34 33 29 26 28 29 29 32 36 39 42 44 47 52 54 55 57 59 59 60 60 59 59 58 56 54 53 51 50 49 47 45 44
31 31 30 30 28 29 29 29 30 32 33 34 33 31 27 28 30 30 32 36 38 41 43 45 49 52 54 56 58 59 59 59 59 59 58 57 55 54 52 51 50 49 47 45
32 32 31 31 30 30 30 28 28 29 31 33 33 32 29 30 31 31 32 35 38 41 43 45 48 50 52 54 56 57 58 58 58 58 58 58 56 55 53 52 51 49 48 46
31 31 32 31 30 31 30 26 27 27 28 30 32 31 30 31 31 31 32 36 38 40 41 44 47 49 51 52 55 56 57 57 58 58 58 58 57 56 54 52 51 50 49 47
31 31 31 32 30 30 26 26 27 27 27 28 30 30 30 31 31 32 33 34 37 39 40 43 46 48 49 51 53 55 56 57 56 57 57 57 57 56 54 52 51 51 49 48
30 30 30 30 30 29 24 24 26 27 27 26 27 28 30 31 31 31 32 33 36 38 40 42 45 47 48 50 52 54 55 56 55 55 56 57 56 55 54 52 50 49 48 47
29 29 29 30 31 29 24 23 24 26 27 25 26 26 27 29 30 29 31 33 34 36 38 41 44 46 48 49 50 52 53 54 54 53 54 55 55 55 54 53 51 49 48 47
27 28 29 30 30 28 24 23 23 25 25 26 26 26 26 28 29 29 31 32 33 34 36 40 43 46 47 48 49 50 51 53 53 52 52 54 55 54 54 53 51 50 48 47
28 28 28 28 29 26 25 25 25 25 26 27 26 26 27 27 28 29 31 33 34 34 35 38 43 45 46 47 48 49 50 51 53 52 52 53 54 54 53 51 50 49 48 47
28 28 30 30 28 27 27 28 28 28 27 28 27 27 26 26 28 30 31 34 35 36 35 37 41 43 44 45 47 48 48 49 51 52 51 51 53 53 51 50 49 48 47 46
28 29 30 30 27 27 28 28 29 29 28 28 29 28 27 27 28 29 31 33 35 36 37 37 40 42 43 45 46 47 47 48 49 50 51 50 51 52 51 50 48 47 46 44
27 29 30 30 27 28 27 27 27 27 27 27 28 29 29 28 28 29 31 33 36 37 37 38 39 42 44 45 46 46 47 47 48 49 49 49 49 50 50 49 47 46 45 44
26 30 31 30 29 30 28 29 30 29 28 27 27 28 29 27 27 29 31 33 35 37 37 37 39 42 44 45 46 45 46 47 47 47 48 48 48 49 49 48 47 45 43 42
Wind_Direction
297 293 291 284 278 275 272 270 266 259 254 253 249 244 238 235 233 230 225 223 222 221 219 218 219 220 220 219 220 221 220 219 219 220 221 222 222 222 223 224 226 227 230 233
297 294 290 285 279 274 271 269 266 259 255 254 249 243 238 235 233 229 226 223 221 219 219 218 218 219 219 219 219 219 219 218 218 220 220 221 222 222 223 224 225 227 230 233
297 294 289 286 280 275 271 268 265 260 256 254 251 243 236 234 232 229 225 223 220 219 218 218 218 218 219 219 219 218 218 218 218 219 220 220 221 222 223 224 226 228 230 233
297 292 287 285 281 277 272 267 264 261 258 255 252 248 234 233 232 229 226 223 220 218 218 217 218 217 218 218 219 219 218 219 218 219 220 221 222 222 223 224 226 228 231 234
299 293 288 285 281 276 272 268 264 261 259 256 252 251 239 233 232 228 226 224 221 218 218 217 217 217 217 217 218 219 219 219 219 219 220 221 221 222 223 224 226 228 231 234
299 293 290 287 281 275 272 268 265 262 261 258 253 252 243 234 232 229 225 223 220 220 219 218 218 217 218 217 218 219 219 219 220 219 220 220 221 222 223 224 226 228 231 234
299 294 290 287 282 274 272 269 267 264 263 261 255 252 244 235 233 230 226 223 220 220 220 219 219 219 219 218 217 218 219 219 220 220 220 221 221 222 223 225 227 228 231 234
301 296 291 287 282 276 271 268 266 267 268 264 257 252 244 237 234 231 228 224 221 220 220 219 219 219 218 218 218 218 218 219 220 220 220 221 221 222 223 224 226 229 231 234
300 296 291 285 279 276 271 268 266 265 268 265 258 251 245 239 235 232 228 226 223 222 221 220 220 219 219 219 219 219 218 219 220 220 220 221 222 222 223 224 226 228 230 233
296 294 289 283 278 274 271 267 264 262 266 266 259 252 245 239 237 234 231 228 225 223 222 221 220 220 220 219 219 219 219 219 220 220 220 221 222 223 223 224 226 229 231 234
294 293 290 285 279 274 268 265 263 262 261 262 260 253 246 243 240 237 232 229 225 223 221 220 220 220 220 219 219 219 220 220 220 220 220 220 222 223 223 224 226 228 230 233
293 291 290 285 280 274 269 266 262 260 261 260 258 252 248 246 242 238 234 230 228 225 222 220 220 220 220 219 219 219 219 220 220 221 221 221 221 222 224 225 226 228 231 233
292 290 291 288 282 275 271 267 263 260 259 258 256 252 247 245 243 238 234 229 227 226 223 222 220 220 220 220 220 220 219 219 220 221 221 221 222 222 224 225 226 228 231 233
291 288 288 288 284 275 272 269 264 260 258 257 255 252 245 246 242 236 233 230 228 226 224 222 220 220 221 221 220 220 219 219 219 220 221 222 223 223 224 226 227 229 231 233
288 285 285 283 280 274 272 269 265 262 261 259 254 251 246 245 242 237 232 229 228 226 224 222 220 219 220 220 220 219 220 219 219 219 221 221 222 223 224 226 228 230 232 233
286 283 283 282 280 276 271 268 268 264 262 260 256 251 248 245 244 241 235 230 227 226 225 222 219 219 220 220 219 219 220 219 219 219 220 221 222 223 224 225 227 230 232 233
286 284 281 282 281 275 270 268 268 266 262 260 257 252 246 246 245 243 238 232 228 226 224 223 220 218 219 219 218 218 219 218 218 219 220 221 223 224 224 226 227 229 231 233
285 284 282 281 279 275 277 270 267 266 262 258 255 251 246 246 246 243 238 233 230 227 225 223 220 218 217 218 218 217 218 218 219 219 220 221 222 223 225 226 227 228 230 233
283 282 281 280 279 278 275 271 270 267 262 258 256 252 249 247 246 243 237 232 228 227 225 223 220 218 216 217 217 217 217 218 219 219 220 220 221 223 224 226 228 229 231 232
281 279 279 279 279 278 276 272 270 267 263 256 256 254 249 244 243 240 236 231 226 224 223 222 220 219 217 217 218 217 217 218 219 219 219 219 220 223 224 226 228 229 230 232
280 277 276 277 277 277 274 270 268 265 263 257 257 256 250 244 243 240 236 230 224 221 220 219 218 218 217 217 218 218 217 218 218 219 219 219 220 222 224 226 228 230 231 232
280 276 274 273 274 276 271 269 266 266 263 260 259 257 251 245 242 238 235 232 227 222 221 219 218 218 218 218 219 218 218 218 218 219 219 219 220 221 223 225 227 230 233 234
278 275 271 270 271 271 270 267 266 265 264 262 261 258 253 246 240 236 234 231 229 226 224 220 217 217 218 218 218 217 217 218 218 219 219 219 220 221 223 225 227 230 232 234
276 273 271 270 270 269 267 265 265 266 264 262 261 260 255 247 239 235 233 231 230 227 224 220 218 218 217 218 217 217 217 217 218 218 219 220 221 222 223 224 226 228 230 233
279 272 271 271 270 264 261 261 263 265 264 263 261 259 256 250 242 236 232 228 228 226 221 219 218 217 217 217 217 216 216 217 218 218 219 219 220 221 223 224 225 226 228 232
278 273 271 270 268 266 262 260 262 264 264 264 262 259 256 250 241 235 230 226 226 224 222 219 218 217 216 216 216 215 216 217 218 218 219 219 220 222 223 223 224 225 227 230
Height
5578 5576 5574 5571 5569 5568 5566 5565 5566 5570 5570 5570 5573 5578 5585 5590 5595 5603 5611 5619 5628 5639 5648 5656 5665 5674 5683 5691 5699 5707 5714 5721 5727 5734 5740 5746 5752 5758 5763 5768 5772 5777 5781 5785
5569 5568 5565 5561 5559 5558 5556 5555 5557 5559 5560 5559 5561 5566 5574 5579 5585 5592 5600 5608 5617 5627 5636 5645 5654 5663 5672 5681 5690 5698 5705 5712 5719 5726 5732 5738 5744 5750 5755 5760 5765 5770 5774 5778
5560 5560 5555 5552 5550 5548 5548 5547 5548 5548 5549 5549 5550 5555 5564 5570 5575 5582 5589 5597 5606 5615 5625 5634 5643 5652 5662 5671 5680 5688 5696 5704 5711 5717 5723 5729 5735 5741 5747 5753 5758 5763 5767 5771
5552 5550 5546 5543 5542 5539 5539 5540 5538 5538 5538 5540 5543 5544 5555 5560 5565 5572 5579 5587 5595 5605 5614 5623 5632 5642 5652 5662 5670 5678 5687 5694 5702 5708 5715 5722 5728 5735 5741 5746 5751 5755 5760 5764
5544 5541 5537 5536 5535 5531 5531 5531 5530 5530 5530 5531 5535 5535 5544 5550 5556 5563 5571 5578 5586 5594 5602 5611 5621 5631 5641 5651 5659 5668 5676 5684 5692 5700 5707 5714 5721 5727 5732 5738 5743 5748 5752 5757
5536 5532 5529 5527 5526 5524 5523 5523 5522 5522 5521 5523 5529 5528 5534 5543 5549 5556 5562 5568 5576 5584 5592 5601 5610 5619 5629 5639 5648 5657 5666 5675 5683 5691 5698 5706 5713 5719 5724 5730 5735 5740 5745 5749
5530 5526 5522 5519 5518 5517 5515 5515 5514 5513 5514 5516 5520 5520 5527 5536 5542 5546 5552 5559 5566 5574 5582 5591 5600 5609 5619 5628 5638 5648 5656 5665 5674 5682 5689 5697 5704 5710 5716 5722 5727 5732 5737 5742
5519 5519 5516 5513 5511 5509 5509 5508 5508 5507 5507 5509 5511 5513 5522 5528 5533 5537 5543 5548 5555 5562 5571 5580 5589 5599 5608 5618 5628 5637 5647 5656 5664 5672 5681 5688 5695 5701 5708 5714 5719 5725 5730 5734
5510 5510 5509 5506 5504 5502 5501 5501 5503 5501 5500 5500 5502 5508 5515 5520 5524 5529 5534 5539 5546 5553 5561 5570 5579 5588 5597 5607 5617 5627 5637 5646 5654 5663 5671 5679 5686 5693 5700 5706 5711 5716 5721 5726
5502 5501 5501 5499 5497 5496 5495 5495 5495 5494 5492 5493 5496 5501 5507 5511 5516 5520 5525 5530 5536 5543 5551 5560 5568 5578 5587 5597 5607 5616 5625 5635 5644 5653 5661 5669 5677 5684 5691 5697 5703 5708 5713 5718
5495 5493 5493 5492 5491 5490 5489 5489 5488 5488 5487 5487 5489 5497 5500 5504 5507 5511 5516 5520 5526 5532 5539 5548 5557 5566 5576 5586 5595 5605 5614 5624 5634 5643 5652 5660 5668 5675 5681 5688 5694 5699 5705 5709
5489 5486 5484 5485 5484 5482 5482 5482 5482 5482 5481 5481 5482 5490 5493 5496 5499 5503 5507 5512 5517 5523 5529 5537 5546 5555 5564 5574 5584 5594 5603 5614 5624 5633 5642 5650 5658 5665 5672 5679 5685 5691 5696 5701
5482 5479 5477 5476 5478 5477 5475 5475 5474 5474 5474 5474 5475 5482 5486 5488 5491 5494 5498 5503 5508 5514 5521 5528 5536 5545 5554 5564 5573 5583 5593 5603 5613 5622 5632 5640 5648 5655 5663 5670 5676 5681 5687 5692
5474 5472 5471 5470 5469 5467 5467 5468 5467 5466 5465 5466 5469 5473 5478 5480 5482 5486 5490 5494 5499 5506 5512 5519 5527 5535 5544 5553 5563 5573 5583 5592 5602 5612 5621 5630 5638 5646 5653 5660 5666 5673 5678 5684
5467 5465 5463 5462 5461 5459 5459 5459 5459 5458 5459 5459 5463 5465 5469 5472 5474 5477 5481 5485 5490 5496 5503 5509 5517 5525 5534 5543 5553 5562 5572 5581 5591 5601 5611 5620 5628 5636 5644 5651 5657 5664 5669 5675
5459 5457 5455 5454 5454 5451 5450 5452 5452 5451 5451 5452 5454 5458 5462 5463 5466 5469 5473 5476 5481 5487 5493 5500 5508 5516 5524 5533 5543 5552 5562 5571 5581 5590 5600 5610 5618 5626 5634 5641 5648 5654 5660 5666
5451 5449 5447 5445 5446 5443 5443 5446 5445 5444 5445 5445 5446 5451 5452 5454 5458 5461 5464 5467 5472 5478 5484 5491 5499 5507 5515 5524 5533 5542 5552 5561 5571 5580 5590 5599 5607 5616 5624 5631 5638 5645 5651 5656
5444 5441 5438 5437 5437 5435 5440 5439 5438 5437 5437 5438 5438 5441 5443 5446 5449 5452 5456 5459 5464 5470 5475 5482 5490 5498 5506 5515 5524 5533 5542 5551 5561 5570 5580 5589 5597 5606 5614 5621 5628 5635 5641 5647
5436 5434 5431 5430 5427 5427 5432 5431 5430 5429 5430 5431 5431 5433 5436 5438 5440 5445 5448 5451 5456 5461 5467 5473 5481 5489 5497 5506 5514 5523 5532 5541 5551 5560 5570 5579 5588 5596 5604 5611 5618 5625 5631 5638
5429 5427 5425 5423 5420 5420 5425 5424 5422 5422 5423 5426 5425 5426 5427 5429 5432 5437 5440 5443 5448 5453 5459 5466 5473 5481 5489 5497 5505 5514 5523 5532 5542 5551 5560 5569 5578 5587 5595 5602 5609 5616 5622 5628
5421 5419 5418 5416 5413 5414 5417 5416 5416 5417 5418 5418 5417 5419 5420 5422 5425 5429 5432 5436 5441 5446 5452 5458 5465 5473 5481 5489 5497 5506 5515 5524 5533 5542 5551 5560 5569 5577 5585 5593 5600 5606 5613 5619
5413 5411 5410 5409 5407 5411 5410 5408 5409 5409 5409 5409 5410 5411 5412 5414 5418 5421 5425 5429 5434 5439 5445 5451 5458 5466 5473 5481 5489 5498 5506 5515 5524 5533 5542 5551 5560 5568 5576 5583 5590 5597 5603 5610
5405 5404 5402 5402 5403 5403 5401 5400 5400 5400 5401 5402 5402 5404 5405 5407 5410 5414 5418 5422 5427 5432 5438 5444 5451 5458 5466 5473 5481 5490 5498 5506 5515 5523 5532 5541 5550 5558 5566 5574 5581 5588 5595 5601
5397 5395 5393 5393 5394 5394 5393 5392 5392 5393 5393 5394 5395 5396 5398 5400 5403 5406 5410 5414 5419 5425 5430 5437 5443 5450 5458 5465 5473 5481 5490 5498 5506 5515 5524 5532 5541 5549 5557 5565 5573 5580 5586 5592
5389 5386 5385 5384 5386 5385 5386 5385 5385 5385 5386 5386 5387 5388 5390 5392 5395 5398 5402 5406 5411 5416 5422 5429 5435 5443 5450 5458 5466 5474 5482 5490 5498 5507 5516 5524 5532 5541 5549 5557 5565 5572 5579 5584
5381 5378 5376 5376 5377 5376 5378 5378 5377 5378 5378 5378 5379 5380 5381 5383 5386 5389 5393 5398 5403 5408 5415 5421 5428 5435 5442 5450 5458 5466 5474 5482 5491 5499 5508 5516 5524 5532 5540 5548 5556 5563 5570 5576